User: anonymous   Login
Location: Chacón
(10.5789°N, 66.9317°W)
Time: 11:34:50
(UTC+00:00)
Language:

CZ-2C R/B - Orbit

View from above orbital plane
View from above orbital plane
View from above satellite
View from above satellite

Ground track
Ground track

The orbit data is extracted from the following two-line orbital elements,

1 36089U 09061B   24205.89712984  .00001559  00000-0  38940-3 0  9990
2 36089  98.3608 171.5530 0079676   4.3882 355.7993 14.51102654777487
Epoch (UTC): 23 July 2024 21:31:52
Eccentricity: 0.0079676
inclination: 98.3608°
perigee height: 665 km
apogee height: 778 km
right ascension of ascending node: 171.5530°
argument of perigee: 4.3882°
revolutions per day: 14.51102654
mean anomaly at epoch: 355.7993°
orbit number at epoch: 77748

The dashed part of the orbit path shows where the satellite is in the earth's shadow,  

DLR